GW3209 Weather Reports


time (UTC)temp
C
wind
direction
speed
KPH
gust
KPH
rain 1hr
cm
rain 24hr
cm
rain mn
cm
humidity
%
barometer
mb
20260510201513 27 200 8.0 12.9 0.00 0.00 0.00 34 1014.7
20260510200020 27 32 3.2 14.5 0.00 0.00 0.00 31 1014.7
20260510194525 27 167 6.4 12.9 0.00 0.00 0.00 32 1015.1
20260510193009 27 111 1.6 17.7 0.00 0.00 0.00 32 1015.1
20260510191512 27 188 8.0 16.1 0.00 0.00 0.00 34 1015.2
20260510190018 26 300 1.6 12.9 0.00 0.00 0.00 34 1015.3
20260510184522 26 265 6.4 16.1 0.00 0.00 0.00 33 1015.5
20260510183026 26 218 4.8 14.5 0.00 0.00 0.00 35 1015.6
20260510181514 26 283 6.4 12.9 0.00 0.00 0.00 32 1015.6
20260510180016 26 263 4.8 16.1 0.00 0.00 0.00 32 1015.8
20260510174521 26 155 4.8 9.7 0.00 0.00 0.00 35 1015.9
20260510173026 25 210 3.2 12.9 0.00 0.00 0.00 37 1016.0
20260510171529 25 152 6.4 16.1 0.00 0.00 0.00 35 1016.2
20260510170011 25 204 6.4 12.9 0.00 0.00 0.00 35 1016.2
20260510164520 25 294 1.6 8.0 0.00 0.00 0.00 36 1016.2
20260510163023 25 93 1.6 12.9 0.00 0.00 0.00 40 1016.4
20260510161526 25 5 3.2 12.9 0.00 0.00 0.00 43 1016.5
20260510160028 24 323 3.2 11.3 0.00 0.00 0.00 44 1016.5
20260510154537 24 355 4.8 12.9 0.00 0.00 0.00 44 1016.5
20260510153016 24 302 6.4 12.9 0.00 0.00 0.00 47 1016.6
20260510151504 23 342 1.6 9.7 0.00 0.00 0.00 52 1016.5
20260510150005 23 70 3.2 8.0 0.00 0.00 0.00 57 1016.5
20260510144517 22 329 1.6 12.9 0.00 0.00 0.00 57 1016.5
20260510143018 21 279 3.2 6.4 0.00 0.00 0.00 61 1016.6
20260510141504 21 293 3.2 8.0 0.00 0.00 0.00 65 1016.6
20260510140004 20 300 3.2 6.4 0.00 0.00 0.00 68 1016.6
20260510134510 20 309 1.6 9.7 0.00 0.00 0.00 70 1016.6
20260510133015 19 289 3.2 8.0 0.00 0.00 0.00 74 1016.4
20260510131534 18 263 4.8 9.7 0.00 0.00 0.00 76 1016.3
20260510130005 18 282 1.6 6.4 0.00 0.00 0.00 82 1016.2
20260510124509 17 211 3.2 4.8 0.00 0.00 0.00 86 1016.2
20260510123011 16 199 1.6 4.8 0.00 0.00 0.00 91 1016.2
20260510121517 15 191 0.0 4.8 0.00 0.00 0.00 93 1015.8
20260510120020 15 188 0.0 0.0 0.00 0.00 0.00 94 1015.6
20260510114524 13 188 0.0 0.0 0.00 0.00 0.00 97 1015.3
20260510113013 12 188 0.0 0.0 0.00 0.00 0.00 96 1015.1
20260510111512 12 188 0.0 0.0 0.00 0.00 0.00 96 1014.9
20260510110016 12 188 0.0 0.0 0.00 0.00 0.00 95 1014.5
20260510104523 12 188 0.0 0.0 0.00 0.00 0.00 96 1014.4
20260510103024 12 188 0.0 0.0 0.00 0.00 0.00 95 1014.1
20260510101508 12 188 0.0 0.0 0.00 0.00 0.00 95 1014.0
20260510100014 12 188 0.0 0.0 0.00 0.00 0.00 95 1013.8
20260510094519 12 188 0.0 0.0 0.00 0.00 0.00 94 1013.6
20260510093028 13 188 0.0 0.0 0.00 0.00 0.00 95 1013.6
20260510091530 13 188 0.0 0.0 0.00 0.00 0.00 94 1013.4
20260510090011 13 188 0.0 0.0 0.00 0.00 0.00 94 1013.4
20260510084518 13 188 0.0 0.0 0.00 0.00 0.00 94 1013.2
20260510083020 13 188 0.0 0.0 0.00 0.00 0.00 94 1013.0
20260510081530 13 188 0.0 0.0 0.00 0.00 0.00 94 1012.9
20260510080033 14 188 0.0 0.0 0.00 0.00 0.00 94 1012.7
20260510074513 14 188 0.0 0.0 0.00 0.00 0.00 94 1012.5
20260510073020 15 188 0.0 0.0 0.00 0.00 0.00 94 1012.4
20260510071526 15 188 0.0 0.0 0.00 0.00 0.00 93 1012.4
20260510070024 15 188 0.0 0.0 0.00 0.00 0.00 93 1012.4
20260510064529 15 188 0.0 0.0 0.00 0.00 0.00 93 1012.3
20260510063011 15 188 0.0 0.0 0.00 0.00 0.00 93 1012.4
20260510061515 15 188 0.0 0.0 0.00 0.00 0.00 93 1012.5
20260510060014 15 188 0.0 0.0 0.00 0.00 0.00 92 1012.7
20260510054506 15 188 0.0 1.6 0.00 0.00 0.00 93 1012.6
20260510053033 16 188 0.0 6.4 0.00 0.00 0.00 92 1012.7
20260510051516 15 188 0.0 0.0 0.00 0.00 0.00 92 1012.7
20260510050016 16 188 0.0 4.8 0.00 0.00 0.00 92 1012.8
20260510044518 16 188 0.0 3.2 0.00 0.00 0.00 91 1012.8
20260510043018 16 188 0.0 1.6 0.00 0.00 0.00 91 1012.7
20260510041517 16 188 0.0 0.0 0.00 0.00 0.00 89 1012.7
20260510040018 16 188 1.6 4.8 0.00 0.00 0.00 90 1012.7
20260510034519 16 188 0.0 3.2 0.00 0.00 0.00 89 1012.7
20260510033021 16 188 1.6 3.2 0.00 0.00 0.00 89 1012.7
20260510031528 17 188 0.0 3.2 0.00 0.00 0.00 89 1012.8
20260510030019 17 188 0.0 0.0 0.00 0.00 0.00 88 1012.8
20260510024521 17 188 1.6 4.8 0.00 0.00 0.00 87 1012.8
20260510023023 17 188 0.0 4.8 0.00 0.00 0.00 85 1012.7
20260510021529 17 187 1.6 6.4 0.00 0.00 0.00 86 1012.6
20260510020030 17 188 1.6 3.2 0.00 0.00 0.00 85 1012.4
20260510014519 18 188 3.2 6.4 0.00 0.00 0.00 83 1012.1
20260510013023 18 188 3.2 6.4 0.00 0.00 0.00 83 1011.9
20260510011524 18 184 3.2 8.0 0.00 0.00 0.00 82 1011.8
20260510010026 19 168 4.8 8.0 0.00 0.00 0.00 81 1011.4
20260510004515 19 174 1.6 8.0 0.00 0.00 0.00 80 1011.0
20260510003018 20 180 3.2 8.0 0.00 0.00 0.00 78 1010.9
20260510001519 20 167 6.4 9.7 0.00 0.00 0.00 77 1010.8
20260510000021 20 168 6.4 9.7 0.00 0.00 0.00 76 1010.7
20260509234514 21 173 4.8 11.3 0.00 0.00 0.00 75 1010.5
20260509233020 21 165 6.4 12.9 0.00 0.00 0.00 74 1010.6
20260509231522 21 174 6.4 12.9 0.00 0.00 0.00 73 1010.5
20260509230020 21 178 6.4 12.9 0.00 0.00 0.00 72 1010.3
20260509224523 22 157 6.4 16.1 0.00 0.00 0.00 71 1010.2
20260509223017 22 188 4.8 16.1 0.00 0.00 0.00 70 1010.1
20260509221522 22 149 11.3 19.3 0.00 0.00 0.00 69 1010.0
20260509220037 22 149 9.7 20.9 0.00 0.00 0.00 68 1009.8
20260509214511 23 157 6.4 17.7 0.00 0.00 0.00 66 1009.9
20260509213003 23 165 8.0 29.0 0.00 0.00 0.00 66 1009.8
20260509211504 23 146 6.4 22.5 0.00 0.00 0.00 67 1009.8
20260509210003 22 146 11.3 20.9 0.00 0.00 0.00 67 1010.0
20260509204512 22 158 12.9 22.5 0.00 0.00 0.00 68 1009.7
20260509203023 22 222 9.7 16.1 0.00 0.00 0.00 69 1009.5